TimeCDT,TemperatureF,Dew PointF,Humidity,Sea Level PressureIn,VisibilityMPH,Wind Direction,Wind SpeedMPH,Gust SpeedMPH,PrecipitationIn,Events,Conditions,WindDirDegrees,DateUTC
12:53 AM,48.0,35.1,61,30.00,10.0,SSE,8.1,-,N/A,,Clear,160,2012-10-09 05:53:00
1:53 AM,48.0,35.1,61,29.99,10.0,SSE,8.1,-,N/A,,Clear,150,2012-10-09 06:53:00
2:53 AM,46.9,35.1,63,29.97,10.0,SE,8.1,-,N/A,,Clear,140,2012-10-09 07:53:00
3:53 AM,46.0,36.0,68,29.95,10.0,SE,8.1,-,N/A,,Clear,140,2012-10-09 08:53:00
4:53 AM,46.0,37.0,71,29.93,10.0,SE,6.9,-,N/A,,Clear,130,2012-10-09 09:53:00
5:53 AM,46.0,37.9,73,29.92,10.0,SE,9.2,-,N/A,,Clear,140,2012-10-09 10:53:00
6:53 AM,46.0,39.9,79,29.91,10.0,SSE,9.2,-,N/A,,Clear,150,2012-10-09 11:53:00
7:53 AM,48.0,42.1,80,29.90,10.0,SSE,10.4,-,N/A,,Clear,160,2012-10-09 12:53:00
8:53 AM,53.1,44.1,71,29.90,10.0,South,15.0,21.9,N/A,,Clear,170,2012-10-09 13:53:00
9:53 AM,57.9,45.0,62,29.90,10.0,South,18.4,26.5,N/A,,Clear,180,2012-10-09 14:53:00
11:53 AM,66.9,48.9,52,29.86,10.0,South,19.6,27.6,N/A,,Partly Cloudy,190,2012-10-09 16:53:00
12:53 PM,69.1,48.9,49,29.85,10.0,South,16.1,27.6,N/A,,Mostly Cloudy,180,2012-10-09 17:53:00
1:53 PM,73.0,51.1,46,29.83,10.0,South,9.2,-,N/A,,Mostly Cloudy,190,2012-10-09 18:53:00
2:53 PM,72.0,50.0,46,29.84,10.0,WSW,4.6,-,N/A,,Overcast,240,2012-10-09 19:53:00
3:53 PM,75.0,50.0,41,29.83,10.0,SW,9.2,-,N/A,,Partly Cloudy,220,2012-10-09 20:53:00
4:53 PM,75.0,51.1,43,29.85,10.0,South,5.8,-,N/A,,Mostly Cloudy,170,2012-10-09 21:53:00
5:53 PM,71.1,52.0,51,29.87,10.0,East,11.5,-,N/A,,Clear,100,2012-10-09 22:53:00
6:53 PM,66.0,52.0,60,29.90,10.0,East,8.1,-,N/A,,Clear,80,2012-10-09 23:53:00
7:53 PM,63.0,52.0,67,29.95,10.0,ENE,9.2,-,N/A,,Clear,60,2012-10-10 00:53:00
8:53 PM,59.0,52.0,78,30.00,10.0,NE,6.9,-,N/A,,Clear,50,2012-10-10 01:53:00
9:53 PM,57.0,51.1,81,30.04,10.0,North,16.1,19.6,N/A,,Partly Cloudy,10,2012-10-10 02:53:00
10:53 PM,59.0,39.9,49,30.07,10.0,NNE,9.2,-,N/A,,Mostly Cloudy,20,2012-10-10 03:53:00
11:53 PM,55.9,39.9,55,30.10,10.0,NNE,12.7,-,N/A,,Clear,20,2012-10-10 04:53:00